Time,TemperatureF,DewpointF,PressureIn,WindDirection,WindDirectionDegrees,WindSpeedMPH,WindSpeedGustMPH,Humidity,HourlyPrecipIn,Conditions,Clouds,dailyrainin,SoftwareType,DateUTC
2013-02-24 00:02:00,42.1,41.0,29.26,NNE,12,2.7,5.4,93,0.00,,,-99.99,wx200d/1.3,2013-02-24 05:02:00,
2013-02-24 00:07:00,41.9,41.0,29.26,NE,36,4.0,5.4,94,0.00,,,-99.99,wx200d/1.3,2013-02-24 05:07:00,
2013-02-24 00:12:00,41.7,39.0,29.26,ENE,57,0.0,4.5,94,0.00,,,-99.99,wx200d/1.3,2013-02-24 05:12:00,
2013-02-24 00:17:00,41.7,39.0,29.26,ENE,63,0.0,4.0,94,0.00,,,-99.99,wx200d/1.3,2013-02-24 05:17:00,
2013-02-24 00:22:00,41.7,39.0,29.26,NE,43,4.5,5.8,94,0.00,,,-99.99,wx200d/1.3,2013-02-24 05:22:00,
2013-02-24 00:27:00,41.7,39.0,29.26,NNE,20,3.1,5.4,94,0.00,,,-99.99,wx200d/1.3,2013-02-24 05:27:00,
2013-02-24 00:32:00,41.7,39.0,29.26,NE,52,2.7,5.8,94,0.00,,,-99.99,wx200d/1.3,2013-02-24 05:32:00,
2013-02-24 00:37:00,41.7,39.0,29.26,NNE,31,0.0,0.0,94,0.00,,,-99.99,wx200d/1.3,2013-02-24 05:37:00,
2013-02-24 00:42:00,41.7,39.0,29.26,NE,52,0.0,2.7,94,0.00,,,-99.99,wx200d/1.3,2013-02-24 05:42:00,
2013-02-24 00:47:00,41.9,41.0,29.23,ESE,107,4.0,5.8,94,0.00,,,-99.99,wx200d/1.3,2013-02-24 05:47:00,
2013-02-24 00:52:00,42.1,41.0,29.23,ENE,65,0.0,8.7,94,0.00,,,-99.99,wx200d/1.3,2013-02-24 05:52:00,
2013-02-24 00:57:00,42.1,41.0,29.23,ENE,58,2.7,5.4,94,0.00,,,-99.99,wx200d/1.3,2013-02-24 05:57:00,
2013-02-24 01:02:00,42.3,41.0,29.23,NE,46,3.6,6.3,94,0.00,,,-99.99,wx200d/1.3,2013-02-24 06:02:00,
2013-02-24 01:07:00,42.3,41.0,29.23,NE,42,3.1,6.9,94,0.00,,,-99.99,wx200d/1.3,2013-02-24 06:07:00,
2013-02-24 01:12:00,42.1,41.0,29.23,NE,43,4.0,7.8,93,0.00,,,-99.99,wx200d/1.3,2013-02-24 06:12:00,
2013-02-24 01:17:00,42.1,41.0,29.26,NE,47,0.0,5.4,93,0.00,,,-99.99,wx200d/1.3,2013-02-24 06:17:00,
2013-02-24 01:22:00,42.1,41.0,29.26,NNE,19,0.0,4.9,93,0.00,,,-99.99,wx200d/1.3,2013-02-24 06:22:00,
2013-02-24 01:27:00,42.1,41.0,29.26,North,1,2.7,5.4,93,0.00,,,-99.99,wx200d/1.3,2013-02-24 06:27:00,
2013-02-24 01:32:00,42.1,41.0,29.26,North,351,0.0,4.9,94,0.00,,,-99.99,wx200d/1.3,2013-02-24 06:32:00,
2013-02-24 01:37:00,42.1,41.0,29.26,NNE,14,0.0,5.8,94,0.00,,,-99.99,wx200d/1.3,2013-02-24 06:37:00,
2013-02-24 01:42:00,42.1,41.0,29.26,NNE,22,2.7,6.3,94,0.00,,,-99.99,wx200d/1.3,2013-02-24 06:42:00,
2013-02-24 01:47:00,42.1,41.0,29.26,NNW,342,3.1,4.9,94,0.00,,,-99.99,wx200d/1.3,2013-02-24 06:47:00,
2013-02-24 01:52:00,42.1,41.0,29.26,North,351,0.0,0.0,94,0.00,,,-99.99,wx200d/1.3,2013-02-24 06:52:00,
2013-02-24 01:57:00,42.1,41.0,29.26,NNW,347,2.7,5.8,94,0.00,,,-99.99,wx200d/1.3,2013-02-24 06:57:00,
2013-02-24 02:02:00,42.1,41.0,29.29,NNW,342,0.0,4.9,94,0.00,,,-99.99,wx200d/1.3,2013-02-24 07:02:00,
2013-02-24 02:07:00,41.9,41.0,29.29,NNW,330,0.0,3.1,94,0.00,,,-99.99,wx200d/1.3,2013-02-24 07:07:00,
2013-02-24 02:12:00,41.9,41.0,29.29,NW,323,0.0,0.0,94,0.00,,,-99.99,wx200d/1.3,2013-02-24 07:12:00,
2013-02-24 02:17:00,41.7,39.0,29.26,NNW,343,0.0,0.0,94,0.00,,,-99.99,wx200d/1.3,2013-02-24 07:17:00,
2013-02-24 02:23:00,41.7,39.0,29.26,NNW,344,0.0,0.0,94,0.00,,,-99.99,wx200d/1.3,2013-02-24 07:23:00,
2013-02-24 02:28:00,41.5,39.0,29.26,NNW,343,0.0,0.0,94,0.00,,,-99.99,wx200d/1.3,2013-02-24 07:28:00,
2013-02-24 02:33:00,41.5,39.0,29.26,North,351,0.0,0.0,94,0.00,,,-99.99,wx200d/1.3,2013-02-24 07:33:00,
2013-02-24 02:38:00,41.5,39.0,29.26,North,356,2.7,3.6,94,0.00,,,-99.99,wx200d/1.3,2013-02-24 07:38:00,
2013-02-24 02:43:00,41.5,39.0,29.26,North,5,0.0,4.5,94,0.00,,,-99.99,wx200d/1.3,2013-02-24 07:43:00,
2013-02-24 02:48:00,41.5,39.0,29.26,NNE,12,0.0,0.0,94,0.00,,,-99.99,wx200d/1.3,2013-02-24 07:48:00,
2013-02-24 02:53:00,41.5,39.0,29.26,North,9,0.0,0.0,94,0.00,,,-99.99,wx200d/1.3,2013-02-24 07:53:00,
2013-02-24 02:58:00,41.5,39.0,29.26,NNE,12,0.0,0.0,94,0.00,,,-99.99,wx200d/1.3,2013-02-24 07:58:00,
2013-02-24 03:03:00,41.4,39.0,29.26,NNE,30,0.0,0.0,94,0.00,,,-99.99,wx200d/1.3,2013-02-24 08:03:00,
2013-02-24 03:08:00,41.2,39.0,29.26,NE,35,0.0,0.0,94,0.00,,,-99.99,wx200d/1.3,2013-02-24 08:08:00,
2013-02-24 03:13:00,41.0,39.0,29.26,NE,35,0.0,0.0,94,0.00,,,-99.99,wx200d/1.3,2013-02-24 08:13:00,
2013-02-24 03:18:00,41.0,39.0,29.26,NE,36,0.0,0.0,94,0.00,,,-99.99,wx200d/1.3,2013-02-24 08:18:00,
2013-02-24 03:23:00,41.0,39.0,29.26,NNE,13,0.0,0.0,94,0.00,,,-99.99,wx200d/1.3,2013-02-24 08:23:00,
2013-02-24 03:28:00,41.0,39.0,29.26,NNE,32,0.0,0.0,94,0.00,,,-99.99,wx200d/1.3,2013-02-24 08:28:00,
2013-02-24 03:33:00,41.0,39.0,29.23,NNE,26,0.0,0.0,94,0.00,,,-99.99,wx200d/1.3,2013-02-24 08:33:00,
2013-02-24 03:38:00,40.8,39.0,29.23,NNE,20,0.0,0.0,94,0.00,,,-99.99,wx200d/1.3,2013-02-24 08:38:00,
2013-02-24 03:43:00,40.8,39.0,29.23,NNE,13,0.0,0.0,94,0.00,,,-99.99,wx200d/1.3,2013-02-24 08:43:00,
2013-02-24 03:48:00,40.8,39.0,29.23,NNE,16,0.0,0.0,94,0.00,,,-99.99,wx200d/1.3,2013-02-24 08:48:00,
2013-02-24 03:53:00,40.8,39.0,29.23,NNE,18,0.0,0.0,94,0.00,,,-99.99,wx200d/1.3,2013-02-24 08:53:00,
2013-02-24 03:58:00,40.8,39.0,29.23,NNE,13,0.0,0.0,94,0.00,,,-99.99,wx200d/1.3,2013-02-24 08:58:00,
2013-02-24 04:03:00,40.8,39.0,29.23,NE,39,0.0,0.0,94,0.00,,,-99.99,wx200d/1.3,2013-02-24 09:03:00,
2013-02-24 04:09:00,40.6,39.0,29.23,NE,45,0.0,0.0,94,0.00,,,-99.99,wx200d/1.3,2013-02-24 09:09:00,
2013-02-24 04:14:00,40.6,39.0,29.23,NNE,18,0.0,0.0,94,0.00,,,-99.99,wx200d/1.3,2013-02-24 09:14:00,
2013-02-24 04:19:00,40.6,39.0,29.23,NNE,18,0.0,0.0,94,0.00,,,-99.99,wx200d/1.3,2013-02-24 09:19:00,
2013-02-24 04:24:00,40.6,39.0,29.23,NNE,15,0.0,0.0,94,0.00,,,-99.99,wx200d/1.3,2013-02-24 09:24:00,
2013-02-24 04:29:00,40.6,39.0,29.23,North,9,0.0,0.0,94,0.00,,,-99.99,wx200d/1.3,2013-02-24 09:29:00,
2013-02-24 04:34:00,40.5,39.0,29.23,NNE,21,0.0,0.0,94,0.00,,,-99.99,wx200d/1.3,2013-02-24 09:34:00,
2013-02-24 04:39:00,40.5,39.0,29.23,NNE,21,0.0,0.0,94,0.00,,,-99.99,wx200d/1.3,2013-02-24 09:39:00,
2013-02-24 04:44:00,40.5,39.0,29.23,NNE,21,0.0,0.0,94,0.00,,,-99.99,wx200d/1.3,2013-02-24 09:44:00,
2013-02-24 04:49:00,40.6,39.0,29.23,NNE,23,0.0,0.0,94,0.00,,,-99.99,wx200d/1.3,2013-02-24 09:49:00,
2013-02-24 04:54:00,40.5,39.0,29.23,NNE,23,0.0,0.0,94,0.00,,,-99.99,wx200d/1.3,2013-02-24 09:54:00,
2013-02-24 04:59:00,40.5,39.0,29.23,NNE,23,0.0,0.0,94,0.00,,,-99.99,wx200d/1.3,2013-02-24 09:59:00,
2013-02-24 05:04:00,40.5,39.0,29.23,NNE,23,0.0,0.0,94,0.00,,,-99.99,wx200d/1.3,2013-02-24 10:04:00,
2013-02-24 05:09:00,40.5,39.0,29.23,NNE,23,0.0,0.0,94,0.00,,,-99.99,wx200d/1.3,2013-02-24 10:09:00,
2013-02-24 05:14:00,40.5,39.0,29.23,NNE,23,0.0,0.0,94,0.00,,,-99.99,wx200d/1.3,2013-02-24 10:14:00,
2013-02-24 05:19:00,40.3,39.0,29.23,NNE,23,0.0,0.0,94,0.00,,,-99.99,wx200d/1.3,2013-02-24 10:19:00,
2013-02-24 05:24:00,40.3,39.0,29.23,NNE,24,0.0,0.0,94,0.00,,,-99.99,wx200d/1.3,2013-02-24 10:24:00,
2013-02-24 05:29:00,40.3,39.0,29.23,NNE,23,0.0,0.0,94,0.00,,,-99.99,wx200d/1.3,2013-02-24 10:29:00,
2013-02-24 05:34:00,40.3,39.0,29.23,NNE,23,0.0,0.0,94,0.00,,,-99.99,wx200d/1.3,2013-02-24 10:34:00,
2013-02-24 05:39:00,40.3,39.0,29.23,NNE,23,0.0,0.0,94,0.00,,,-99.99,wx200d/1.3,2013-02-24 10:39:00,
2013-02-24 05:44:00,40.1,39.0,29.26,NNE,23,0.0,0.0,94,0.00,,,-99.99,wx200d/1.3,2013-02-24 10:44:00,
2013-02-24 05:49:00,39.9,37.0,29.26,NNE,23,0.0,0.0,94,0.00,,,-99.99,wx200d/1.3,2013-02-24 10:49:00,
2013-02-24 05:54:00,39.7,37.0,29.26,NNE,23,0.0,0.0,94,0.00,,,-99.99,wx200d/1.3,2013-02-24 10:54:00,
2013-02-24 05:59:00,39.7,37.0,29.26,NNE,23,0.0,0.0,94,0.00,,,-99.99,wx200d/1.3,2013-02-24 10:59:00,
2013-02-24 06:04:00,39.7,37.0,29.26,NNE,23,0.0,0.0,94,0.00,,,-99.99,wx200d/1.3,2013-02-24 11:04:00,
2013-02-24 06:09:00,39.7,37.0,29.26,NNE,23,0.0,0.0,94,0.00,,,-99.99,wx200d/1.3,2013-02-24 11:09:00,
2013-02-24 06:15:00,39.9,37.0,29.26,NNE,23,0.0,0.0,94,0.00,,,-99.99,wx200d/1.3,2013-02-24 11:15:00,
2013-02-24 06:20:00,39.9,37.0,29.26,NNE,23,0.0,0.0,94,0.00,,,-99.99,wx200d/1.3,2013-02-24 11:20:00,
2013-02-24 06:25:00,40.1,39.0,29.26,NNE,23,0.0,0.0,94,0.00,,,-99.99,wx200d/1.3,2013-02-24 11:25:00,
2013-02-24 06:30:00,40.1,39.0,29.26,NNE,23,0.0,0.0,94,0.00,,,-99.99,wx200d/1.3,2013-02-24 11:30:00,
2013-02-24 06:35:00,40.1,39.0,29.26,NW,313,0.0,0.0,94,0.00,,,-99.99,wx200d/1.3,2013-02-24 11:35:00,
2013-02-24 06:40:00,40.3,39.0,29.26,NNW,329,0.0,0.0,94,0.00,,,-99.99,wx200d/1.3,2013-02-24 11:40:00,
2013-02-24 06:45:00,40.5,39.0,29.26,NW,305,0.0,0.0,94,0.00,,,-99.99,wx200d/1.3,2013-02-24 11:45:00,
2013-02-24 06:50:00,40.6,39.0,29.26,NW,304,0.0,0.0,94,0.00,,,-99.99,wx200d/1.3,2013-02-24 11:50:00,
2013-02-24 06:55:00,40.8,39.0,29.26,NW,321,0.0,0.0,94,0.00,,,-99.99,wx200d/1.3,2013-02-24 11:55:00,
2013-02-24 07:00:00,40.8,39.0,29.26,NW,317,0.0,0.0,94,0.00,,,-99.99,wx200d/1.3,2013-02-24 12:00:00,
2013-02-24 07:05:00,40.8,39.0,29.26,WNW,303,0.0,0.0,94,0.00,,,-99.99,wx200d/1.3,2013-02-24 12:05:00,
2013-02-24 07:10:00,40.8,39.0,29.26,NW,311,0.0,0.0,94,0.00,,,-99.99,wx200d/1.3,2013-02-24 12:10:00,
2013-02-24 07:15:00,41.0,39.0,29.26,WNW,282,0.0,0.0,94,0.00,,,-99.99,wx200d/1.3,2013-02-24 12:15:00,
2013-02-24 07:20:00,41.0,39.0,29.26,WNW,300,0.0,0.0,94,0.00,,,-99.99,wx200d/1.3,2013-02-24 12:20:00,
2013-02-24 07:25:00,41.2,39.0,29.26,NNW,337,4.0,6.7,94,0.00,,,-99.99,wx200d/1.3,2013-02-24 12:25:00,
2013-02-24 07:30:00,41.2,39.0,29.26,NW,326,0.0,0.0,94,0.00,,,-99.99,wx200d/1.3,2013-02-24 12:30:00,
2013-02-24 07:35:00,41.2,39.0,29.26,NNW,327,0.0,4.9,94,0.00,,,-99.99,wx200d/1.3,2013-02-24 12:35:00,
2013-02-24 07:40:00,41.0,39.0,29.26,NW,310,0.0,0.0,94,0.00,,,-99.99,wx200d/1.3,2013-02-24 12:40:00,
2013-02-24 07:45:00,41.0,39.0,29.26,North,351,0.0,0.0,94,0.00,,,-99.99,wx200d/1.3,2013-02-24 12:45:00,
2013-02-24 07:50:00,40.8,39.0,29.26,NNW,341,0.0,0.0,94,0.00,,,-99.99,wx200d/1.3,2013-02-24 12:50:00,
2013-02-24 07:55:00,40.6,39.0,29.26,North,351,0.0,0.0,94,0.00,,,-99.99,wx200d/1.3,2013-02-24 12:55:00,
2013-02-24 08:00:00,40.6,39.0,29.26,NNW,341,0.0,0.0,94,0.00,,,-99.99,wx200d/1.3,2013-02-24 13:00:00,
2013-02-24 08:05:00,40.5,39.0,29.26,NNW,347,0.0,0.0,94,0.00,,,-99.99,wx200d/1.3,2013-02-24 13:05:00,
2013-02-24 08:10:00,40.8,39.0,29.26,North,351,0.0,0.0,94,0.00,,,-99.99,wx200d/1.3,2013-02-24 13:10:00,
2013-02-24 08:15:00,41.2,39.0,29.26,North,356,3.6,6.7,94,0.00,,,-99.99,wx200d/1.3,2013-02-24 13:15:00,
2013-02-24 08:20:00,41.5,39.0,29.26,NNW,346,0.0,6.3,94,0.00,,,-99.99,wx200d/1.3,2013-02-24 13:20:00,
2013-02-24 08:26:00,41.9,41.0,29.26,NNW,346,3.1,6.9,94,0.00,,,-99.99,wx200d/1.3,2013-02-24 13:26:00,
2013-02-24 08:31:00,42.3,41.0,29.26,West,275,0.0,0.0,94,0.00,,,-99.99,wx200d/1.3,2013-02-24 13:31:00,
2013-02-24 08:36:00,42.4,41.0,29.26,NW,320,0.0,0.0,94,0.00,,,-99.99,wx200d/1.3,2013-02-24 13:36:00,
2013-02-24 08:41:00,42.6,41.0,29.26,NW,315,0.0,0.0,94,0.00,,,-99.99,wx200d/1.3,2013-02-24 13:41:00,
2013-02-24 08:46:00,43.0,41.0,29.26,West,275,0.0,0.0,94,0.00,,,-99.99,wx200d/1.3,2013-02-24 13:46:00,
2013-02-24 08:51:00,43.0,41.0,29.26,West,271,6.7,9.2,94,0.00,,,-99.99,wx200d/1.3,2013-02-24 13:51:00,
2013-02-24 08:56:00,43.0,41.0,29.26,West,273,7.4,9.2,94,0.00,,,-99.99,wx200d/1.3,2013-02-24 13:56:00,
2013-02-24 09:01:00,43.0,41.0,29.26,West,269,8.3,9.6,94,0.00,,,-99.99,wx200d/1.3,2013-02-24 14:01:00,
2013-02-24 09:06:00,43.3,41.0,29.26,WNW,301,0.0,11.0,94,0.00,,,-99.99,wx200d/1.3,2013-02-24 14:06:00,
2013-02-24 09:11:00,42.6,41.0,29.26,WNW,299,10.1,13.0,93,0.00,,,-99.99,wx200d/1.3,2013-02-24 14:11:00,
2013-02-24 09:16:00,42.3,39.0,29.29,West,278,12.5,15.4,88,0.00,,,-99.99,wx200d/1.3,2013-02-24 14:16:00,
2013-02-24 09:21:00,42.4,37.0,29.29,West,280,11.0,15.2,79,0.00,,,-99.99,wx200d/1.3,2013-02-24 14:21:00,
2013-02-24 09:26:00,42.6,34.0,29.29,West,274,11.2,16.3,71,0.00,,,-99.99,wx200d/1.3,2013-02-24 14:26:00,
2013-02-24 09:31:00,43.0,32.0,29.29,WNW,303,7.4,15.4,65,0.00,,,-99.99,wx200d/1.3,2013-02-24 14:31:00,
2013-02-24 09:36:00,43.0,32.0,29.29,NNW,336,9.2,17.2,57,0.00,,,-99.99,wx200d/1.3,2013-02-24 14:36:00,
2013-02-24 09:41:00,43.0,32.0,29.29,NNW,339,11.2,15.9,53,0.00,,,-99.99,wx200d/1.3,2013-02-24 14:41:00,
2013-02-24 09:46:00,43.2,32.0,29.29,WNW,289,13.0,17.2,52,0.00,,,-99.99,wx200d/1.3,2013-02-24 14:46:00,
2013-02-24 09:51:00,42.8,32.0,29.29,NW,309,7.8,15.9,50,0.00,,,-99.99,wx200d/1.3,2013-02-24 14:51:00,
2013-02-24 09:56:00,42.6,32.0,29.29,WNW,302,9.2,16.8,50,0.00,,,-99.99,wx200d/1.3,2013-02-24 14:56:00,
2013-02-24 10:01:00,43.0,32.0,29.29,WNW,296,13.4,16.8,50,0.00,,,-99.99,wx200d/1.3,2013-02-24 15:01:00,
2013-02-24 10:06:00,43.3,32.0,29.29,WNW,286,12.1,15.9,52,0.00,,,-99.99,wx200d/1.3,2013-02-24 15:06:00,
2013-02-24 10:11:00,43.0,32.0,29.29,NW,321,9.2,18.1,50,0.00,,,-99.99,wx200d/1.3,2013-02-24 15:11:00,
2013-02-24 10:16:00,43.0,32.0,29.29,WNW,290,11.0,15.9,52,0.00,,,-99.99,wx200d/1.3,2013-02-24 15:16:00,
2013-02-24 10:21:00,43.3,32.0,29.29,WNW,301,8.3,16.3,50,0.00,,,-99.99,wx200d/1.3,2013-02-24 15:21:00,
2013-02-24 10:26:00,43.0,32.0,29.29,NNW,335,10.5,17.2,44,0.00,,,-99.99,wx200d/1.3,2013-02-24 15:26:00,
2013-02-24 10:31:00,43.2,32.0,29.29,WNW,283,9.2,13.4,44,0.00,,,-99.99,wx200d/1.3,2013-02-24 15:31:00,
2013-02-24 10:36:00,43.0,32.0,29.29,WNW,288,9.6,14.8,44,0.00,,,-99.99,wx200d/1.3,2013-02-24 15:36:00,
2013-02-24 10:41:00,43.0,32.0,29.29,WNW,290,10.5,22.4,44,0.00,,,-99.99,wx200d/1.3,2013-02-24 15:41:00,
2013-02-24 10:46:00,43.5,32.0,29.29,NW,314,6.3,13.0,43,0.00,,,-99.99,wx200d/1.3,2013-02-24 15:46:00,
2013-02-24 10:51:00,43.7,32.0,29.29,West,277,12.5,18.1,40,0.00,,,-99.99,wx200d/1.3,2013-02-24 15:51:00,
2013-02-24 10:56:00,43.9,32.0,29.29,West,275,11.0,16.8,39,0.00,,,-99.99,wx200d/1.3,2013-02-24 15:56:00,
2013-02-24 11:01:00,43.7,32.0,29.29,NW,309,12.1,19.9,39,0.00,,,-99.99,wx200d/1.3,2013-02-24 16:01:00,
2013-02-24 11:07:00,43.3,32.0,29.29,NW,318,8.3,16.8,39,0.00,,,-99.99,wx200d/1.3,2013-02-24 16:07:00,
2013-02-24 11:12:00,43.2,32.0,29.29,WNW,299,11.2,17.7,39,0.00,,,-99.99,wx200d/1.3,2013-02-24 16:12:00,
2013-02-24 11:17:00,43.3,32.0,29.29,NW,305,12.5,21.5,39,0.00,,,-99.99,wx200d/1.3,2013-02-24 16:17:00,
2013-02-24 11:22:00,43.7,32.0,29.29,WNW,301,18.6,21.5,38,0.00,,,-99.99,wx200d/1.3,2013-02-24 16:22:00,
2013-02-24 11:27:00,43.9,32.0,29.29,WNW,287,15.2,22.8,36,0.00,,,-99.99,wx200d/1.3,2013-02-24 16:27:00,
2013-02-24 11:32:00,44.1,32.0,29.32,WSW,256,17.2,21.9,37,0.00,,,-99.99,wx200d/1.3,2013-02-24 16:32:00,
2013-02-24 11:37:00,44.2,32.0,29.32,WNW,283,12.5,19.9,35,0.00,,,-99.99,wx200d/1.3,2013-02-24 16:37:00,
2013-02-24 11:42:00,44.1,32.0,29.32,WNW,284,14.8,21.5,33,0.00,,,-99.99,wx200d/1.3,2013-02-24 16:42:00,
2013-02-24 11:47:00,44.4,32.0,29.32,West,278,14.8,19.5,31,0.00,,,-99.99,wx200d/1.3,2013-02-24 16:47:00,
2013-02-24 11:52:00,44.1,32.0,29.32,West,270,16.8,23.7,30,0.00,,,-99.99,wx200d/1.3,2013-02-24 16:52:00,
2013-02-24 11:57:00,43.9,32.0,29.32,SW,235,12.1,21.5,32,0.00,,,-99.99,wx200d/1.3,2013-02-24 16:57:00,
2013-02-24 12:02:00,44.2,32.0,29.29,WNW,300,15.2,20.6,30,0.00,,,-99.99,wx200d/1.3,2013-02-24 17:02:00,
2013-02-24 12:07:00,44.6,32.0,29.29,WNW,300,14.8,22.8,30,0.00,,,-99.99,wx200d/1.3,2013-02-24 17:07:00,
2013-02-24 12:12:00,44.6,32.0,29.29,NW,315,11.2,21.9,30,0.00,,,-99.99,wx200d/1.3,2013-02-24 17:12:00,
2013-02-24 12:17:00,44.8,32.0,29.29,WNW,293,12.1,22.4,30,0.00,,,-99.99,wx200d/1.3,2013-02-24 17:17:00,
2013-02-24 12:22:00,44.6,32.0,29.29,North,351,9.2,17.2,31,0.00,,,-99.99,wx200d/1.3,2013-02-24 17:22:00,
2013-02-24 12:27:00,45.1,32.0,29.29,NNW,346,8.7,18.1,31,0.00,,,-99.99,wx200d/1.3,2013-02-24 17:27:00,
2013-02-24 12:32:00,45.1,32.0,29.29,West,274,16.8,21.5,29,0.00,,,-99.99,wx200d/1.3,2013-02-24 17:32:00,
2013-02-24 12:37:00,44.1,32.0,29.29,NW,312,12.5,23.3,29,0.00,,,-99.99,wx200d/1.3,2013-02-24 17:37:00,
2013-02-24 12:42:00,44.2,32.0,29.29,WNW,300,14.8,21.9,29,0.00,,,-99.99,wx200d/1.3,2013-02-24 17:42:00,
2013-02-24 12:47:00,45.0,32.0,29.29,NW,315,9.2,15.4,30,0.00,,,-99.99,wx200d/1.3,2013-02-24 17:47:00,
2013-02-24 12:52:00,45.0,32.0,29.29,West,267,12.5,21.0,29,0.00,,,-99.99,wx200d/1.3,2013-02-24 17:52:00,
2013-02-24 12:57:00,44.4,32.0,29.29,WNW,287,14.3,22.4,29,0.00,,,-99.99,wx200d/1.3,2013-02-24 17:57:00,
2013-02-24 13:02:00,44.8,32.0,29.29,NW,321,11.0,20.6,29,0.00,,,-99.99,wx200d/1.3,2013-02-24 18:02:00,
2013-02-24 13:07:00,44.6,32.0,29.29,West,281,9.2,20.1,29,0.00,,,-99.99,wx200d/1.3,2013-02-24 18:07:00,
2013-02-24 13:12:00,44.8,32.0,29.29,NW,315,12.5,17.7,29,0.00,,,-99.99,wx200d/1.3,2013-02-24 18:12:00,
2013-02-24 13:17:00,44.2,32.0,29.29,NW,321,11.2,18.6,29,0.00,,,-99.99,wx200d/1.3,2013-02-24 18:17:00,
2013-02-24 13:22:00,45.0,32.0,29.29,West,265,14.3,19.9,29,0.00,,,-99.99,wx200d/1.3,2013-02-24 18:22:00,
2013-02-24 13:27:00,45.1,32.0,29.29,NW,324,20.1,23.3,29,0.00,,,-99.99,wx200d/1.3,2013-02-24 18:27:00,
2013-02-24 13:32:00,45.1,32.0,29.29,WNW,300,14.8,21.5,29,0.00,,,-99.99,wx200d/1.3,2013-02-24 18:32:00,
2013-02-24 13:37:00,44.4,32.0,29.29,NW,309,11.0,17.7,28,0.00,,,-99.99,wx200d/1.3,2013-02-24 18:37:00,
2013-02-24 13:42:00,43.5,32.0,29.29,North,356,10.1,15.9,29,0.00,,,-99.99,wx200d/1.3,2013-02-24 18:42:00,
2013-02-24 13:47:00,43.3,32.0,29.29,NW,323,11.2,17.7,30,0.00,,,-99.99,wx200d/1.3,2013-02-24 18:47:00,
2013-02-24 13:52:00,43.3,32.0,29.29,WNW,300,16.3,21.5,29,0.00,,,-99.99,wx200d/1.3,2013-02-24 18:52:00,
2013-02-24 13:57:00,44.1,32.0,29.29,WNW,300,11.2,18.6,29,0.00,,,-99.99,wx200d/1.3,2013-02-24 18:57:00,
2013-02-24 14:02:00,43.9,32.0,29.29,West,275,13.0,20.1,29,0.00,,,-99.99,wx200d/1.3,2013-02-24 19:02:00,
2013-02-24 14:07:00,43.2,32.0,29.29,West,259,10.5,18.6,29,0.00,,,-99.99,wx200d/1.3,2013-02-24 19:07:00,
2013-02-24 14:12:00,43.3,32.0,29.29,NW,304,13.0,19.0,30,0.00,,,-99.99,wx200d/1.3,2013-02-24 19:12:00,
2013-02-24 14:17:00,43.7,32.0,29.29,WNW,300,14.8,25.7,29,0.00,,,-99.99,wx200d/1.3,2013-02-24 19:17:00,
2013-02-24 14:22:00,43.5,32.0,29.29,NW,304,12.1,19.5,30,0.00,,,-99.99,wx200d/1.3,2013-02-24 19:22:00,
2013-02-24 14:28:00,44.1,32.0,29.29,NNW,336,13.4,21.0,29,0.00,,,-99.99,wx200d/1.3,2013-02-24 19:28:00,
2013-02-24 14:33:00,43.7,32.0,29.29,NW,310,16.3,21.0,29,0.00,,,-99.99,wx200d/1.3,2013-02-24 19:33:00,
2013-02-24 14:38:00,43.3,32.0,29.29,WNW,294,11.0,21.0,29,0.00,,,-99.99,wx200d/1.3,2013-02-24 19:38:00,
2013-02-24 14:43:00,44.2,32.0,29.29,NNW,336,12.1,18.6,29,0.00,,,-99.99,wx200d/1.3,2013-02-24 19:43:00,
2013-02-24 14:48:00,43.7,32.0,29.32,NW,313,11.6,21.9,28,0.00,,,-99.99,wx200d/1.3,2013-02-24 19:48:00,
2013-02-24 14:53:00,43.5,32.0,29.32,NNW,327,14.3,21.0,29,0.00,,,-99.99,wx200d/1.3,2013-02-24 19:53:00,
2013-02-24 14:58:00,43.3,32.0,29.32,West,275,18.1,22.4,29,0.00,,,-99.99,wx200d/1.3,2013-02-24 19:58:00,
2013-02-24 15:03:00,42.8,32.0,29.32,WNW,302,19.0,27.1,29,0.00,,,-99.99,wx200d/1.3,2013-02-24 20:03:00,
2013-02-24 15:08:00,41.7,32.0,29.32,WNW,297,16.3,24.4,29,0.00,,,-99.99,wx200d/1.3,2013-02-24 20:08:00,
2013-02-24 15:13:00,41.4,32.0,29.32,WNW,299,19.9,24.8,29,0.08,,,-99.99,wx200d/1.3,2013-02-24 20:13:00,
2013-02-24 15:18:00,41.4,32.0,29.32,WNW,296,16.3,24.8,29,0.08,,,-99.99,wx200d/1.3,2013-02-24 20:18:00,
2013-02-24 15:23:00,41.7,32.0,29.32,WSW,256,20.1,28.6,29,0.08,,,-99.99,wx200d/1.3,2013-02-24 20:23:00,
2013-02-24 15:28:00,41.9,32.0,29.32,West,265,18.6,24.8,29,0.08,,,-99.99,wx200d/1.3,2013-02-24 20:28:00,
2013-02-24 15:33:00,42.3,32.0,29.32,West,276,19.5,24.8,29,0.24,,,-99.99,wx200d/1.3,2013-02-24 20:33:00,
2013-02-24 15:38:00,42.4,32.0,29.32,WNW,284,13.4,23.3,29,0.24,,,-99.99,wx200d/1.3,2013-02-24 20:38:00,
2013-02-24 15:43:00,42.4,32.0,29.32,West,277,15.9,22.4,29,0.24,,,-99.99,wx200d/1.3,2013-02-24 20:43:00,
2013-02-24 15:48:00,42.3,32.0,29.35,WNW,283,16.8,21.0,29,0.24,,,-99.99,wx200d/1.3,2013-02-24 20:48:00,
2013-02-24 15:53:00,42.3,32.0,29.35,West,274,15.2,19.0,29,0.24,,,-99.99,wx200d/1.3,2013-02-24 20:53:00,
2013-02-24 15:58:00,41.2,32.0,29.35,NW,306,14.3,20.6,30,0.24,,,-99.99,wx200d/1.3,2013-02-24 20:58:00,
2013-02-24 16:03:00,40.8,32.0,29.35,NNW,337,9.6,19.0,29,0.24,,,-99.99,wx200d/1.3,2013-02-24 21:03:00,
2013-02-24 16:08:00,40.3,32.0,29.35,NW,310,15.2,23.7,29,0.24,,,-99.99,wx200d/1.3,2013-02-24 21:08:00,
2013-02-24 16:13:00,39.7,32.0,29.35,WNW,291,12.1,24.2,30,0.24,,,-99.99,wx200d/1.3,2013-02-24 21:13:00,
2013-02-24 16:18:00,39.2,32.0,29.35,WNW,285,11.2,23.7,30,0.12,,,-99.99,wx200d/1.3,2013-02-24 21:18:00,
2013-02-24 16:23:00,39.0,32.0,29.35,West,281,14.8,21.5,30,0.12,,,-99.99,wx200d/1.3,2013-02-24 21:23:00,
2013-02-24 16:28:00,38.8,32.0,29.35,West,278,14.3,24.2,30,0.12,,,-99.99,wx200d/1.3,2013-02-24 21:28:00,
2013-02-24 16:33:00,38.8,32.0,29.35,West,265,14.3,19.0,30,0.12,,,-99.99,wx200d/1.3,2013-02-24 21:33:00,
2013-02-24 16:38:00,39.4,32.0,29.35,West,281,15.2,20.6,30,0.08,,,-99.99,wx200d/1.3,2013-02-24 21:38:00,
2013-02-24 16:43:00,39.4,32.0,29.35,West,276,13.0,20.1,30,0.08,,,-99.99,wx200d/1.3,2013-02-24 21:43:00,
2013-02-24 16:48:00,39.4,32.0,29.35,West,273,13.4,18.1,30,0.08,,,-99.99,wx200d/1.3,2013-02-24 21:48:00,
2013-02-24 16:53:00,39.0,32.0,29.35,WNW,298,16.8,19.5,29,0.08,,,-99.99,wx200d/1.3,2013-02-24 21:53:00,
2013-02-24 16:58:00,38.7,32.0,29.35,NW,322,11.0,18.6,30,0.08,,,-99.99,wx200d/1.3,2013-02-24 21:58:00,
2013-02-24 17:03:00,38.5,32.0,29.38,WNW,287,16.8,20.1,29,0.08,,,-99.99,wx200d/1.3,2013-02-24 22:03:00,
2013-02-24 17:08:00,38.5,32.0,29.38,WNW,296,16.8,23.3,29,0.08,,,-99.99,wx200d/1.3,2013-02-24 22:08:00,
2013-02-24 17:13:00,38.5,32.0,29.38,West,260,13.0,23.3,29,0.08,,,-99.99,wx200d/1.3,2013-02-24 22:13:00,
2013-02-24 17:18:00,38.3,32.0,29.38,WNW,298,12.5,23.3,29,0.08,,,-99.99,wx200d/1.3,2013-02-24 22:18:00,
2013-02-24 17:23:00,38.1,32.0,29.38,West,274,14.8,19.5,30,0.08,,,-99.99,wx200d/1.3,2013-02-24 22:23:00,
2013-02-24 17:28:00,37.6,32.0,29.38,WNW,302,13.9,16.3,30,0.08,,,-99.99,wx200d/1.3,2013-02-24 22:28:00,
2013-02-24 17:33:00,37.4,32.0,29.38,WNW,284,8.7,16.3,30,0.08,,,-99.99,wx200d/1.3,2013-02-24 22:33:00,
2013-02-24 17:38:00,37.4,32.0,29.38,West,264,12.5,15.4,30,0.08,,,-99.99,wx200d/1.3,2013-02-24 22:38:00,
2013-02-24 17:43:00,37.4,32.0,29.38,NW,307,13.9,21.5,30,0.08,,,-99.99,wx200d/1.3,2013-02-24 22:43:00,
2013-02-24 17:48:00,37.4,32.0,29.38,West,274,10.5,19.9,30,0.08,,,-99.99,wx200d/1.3,2013-02-24 22:48:00,
2013-02-24 17:53:00,37.2,32.0,29.38,WNW,297,12.1,15.9,30,0.08,,,-99.99,wx200d/1.3,2013-02-24 22:53:00,
2013-02-24 17:58:00,37.2,32.0,29.38,West,275,13.9,16.3,30,0.08,,,-99.99,wx200d/1.3,2013-02-24 22:58:00,
2013-02-24 18:03:00,37.0,32.0,29.41,WNW,292,12.5,17.7,30,0.08,,,-99.99,wx200d/1.3,2013-02-24 23:03:00,
2013-02-24 18:08:00,37.0,32.0,29.41,West,277,11.6,19.9,30,0.08,,,-99.99,wx200d/1.3,2013-02-24 23:08:00,
2013-02-24 18:13:00,36.9,32.0,29.41,West,266,9.6,15.4,30,0.08,,,-99.99,wx200d/1.3,2013-02-24 23:13:00,
2013-02-24 18:18:00,36.9,32.0,29.41,WNW,302,10.5,16.3,30,0.08,,,-99.99,wx200d/1.3,2013-02-24 23:18:00,
2013-02-24 18:23:00,36.7,32.0,29.41,West,271,8.7,14.8,30,0.08,,,-99.99,wx200d/1.3,2013-02-24 23:23:00,
2013-02-24 18:28:00,36.7,32.0,29.41,WNW,299,10.5,15.2,30,0.08,,,-99.99,wx200d/1.3,2013-02-24 23:28:00,
2013-02-24 18:33:00,36.5,32.0,29.41,NW,324,10.1,15.4,30,0.08,,,-99.99,wx200d/1.3,2013-02-24 23:33:00,
2013-02-24 18:38:00,36.7,32.0,29.41,WNW,294,8.3,15.4,30,0.08,,,-99.99,wx200d/1.3,2013-02-24 23:38:00,
2013-02-24 18:43:00,36.7,32.0,29.41,NW,312,8.3,14.8,30,0.08,,,-99.99,wx200d/1.3,2013-02-24 23:43:00,
2013-02-24 18:48:00,36.3,32.0,29.41,West,281,9.6,11.6,30,0.08,,,-99.99,wx200d/1.3,2013-02-24 23:48:00,
2013-02-24 18:53:00,36.3,32.0,29.41,West,281,12.1,15.4,30,0.08,,,-99.99,wx200d/1.3,2013-02-24 23:53:00,
2013-02-24 18:58:00,36.3,32.0,29.44,NW,310,11.0,14.8,30,0.08,,,-99.99,wx200d/1.3,2013-02-24 23:58:00,
2013-02-24 19:03:00,36.3,32.0,29.44,NW,315,7.8,14.8,30,0.08,,,-99.99,wx200d/1.3,2013-02-25 00:03:00,
2013-02-24 19:09:00,36.1,32.0,29.44,NW,310,6.7,13.4,30,0.08,,,-99.99,wx200d/1.3,2013-02-25 00:09:00,
2013-02-24 19:14:00,36.1,32.0,29.44,West,273,9.2,13.4,30,0.08,,,-99.99,wx200d/1.3,2013-02-25 00:14:00,
2013-02-24 19:19:00,36.0,32.0,29.44,West,268,10.5,12.5,31,0.00,,,-99.99,wx200d/1.3,2013-02-25 00:19:00,
2013-02-24 19:24:00,36.0,32.0,29.44,WNW,283,9.6,15.4,31,0.00,,,-99.99,wx200d/1.3,2013-02-25 00:24:00,
2013-02-24 19:29:00,35.8,32.0,29.44,NW,305,10.1,14.3,31,0.00,,,-99.99,wx200d/1.3,2013-02-25 00:29:00,
2013-02-24 19:34:00,35.6,32.0,29.44,WNW,297,9.2,11.2,31,0.00,,,-99.99,wx200d/1.3,2013-02-25 00:34:00,
2013-02-24 19:39:00,35.6,32.0,29.44,WNW,288,11.0,13.4,31,0.00,,,-99.99,wx200d/1.3,2013-02-25 00:39:00,
2013-02-24 19:44:00,35.4,32.0,29.44,NW,304,8.7,12.1,32,0.00,,,-99.99,wx200d/1.3,2013-02-25 00:44:00,
2013-02-24 19:49:00,35.2,32.0,29.44,WNW,288,9.2,11.2,32,0.00,,,-99.99,wx200d/1.3,2013-02-25 00:49:00,
2013-02-24 19:54:00,35.2,32.0,29.44,North,351,9.2,14.3,31,0.00,,,-99.99,wx200d/1.3,2013-02-25 00:54:00,
2013-02-24 19:59:00,35.4,32.0,29.44,WNW,294,9.2,13.0,31,0.00,,,-99.99,wx200d/1.3,2013-02-25 00:59:00,
2013-02-24 20:04:00,35.4,32.0,29.44,NW,313,10.1,13.4,31,0.00,,,-99.99,wx200d/1.3,2013-02-25 01:04:00,
2013-02-24 20:09:00,35.2,32.0,29.44,NW,311,7.4,11.2,31,0.00,,,-99.99,wx200d/1.3,2013-02-25 01:09:00,
2013-02-24 20:14:00,35.1,32.0,29.47,West,273,6.9,9.2,32,0.00,,,-99.99,wx200d/1.3,2013-02-25 01:14:00,
2013-02-24 20:19:00,34.9,32.0,29.47,WSW,255,7.4,10.1,31,0.00,,,-99.99,wx200d/1.3,2013-02-25 01:19:00,
2013-02-24 20:24:00,34.9,32.0,29.47,West,260,6.9,8.7,32,0.00,,,-99.99,wx200d/1.3,2013-02-25 01:24:00,
2013-02-24 20:29:00,34.5,32.0,29.47,WSW,256,6.9,8.7,33,0.00,,,-99.99,wx200d/1.3,2013-02-25 01:29:00,
2013-02-24 20:34:00,34.3,32.0,29.47,West,259,8.3,9.2,34,0.00,,,-99.99,wx200d/1.3,2013-02-25 01:34:00,
2013-02-24 20:39:00,34.3,32.0,29.47,WSW,251,7.8,10.5,33,0.00,,,-99.99,wx200d/1.3,2013-02-25 01:39:00,
2013-02-24 20:44:00,34.3,32.0,29.47,WSW,255,7.8,10.5,33,0.00,,,-99.99,wx200d/1.3,2013-02-25 01:44:00,
2013-02-24 20:49:00,34.2,32.0,29.47,WSW,250,7.4,9.6,34,0.00,,,-99.99,wx200d/1.3,2013-02-25 01:49:00,
2013-02-24 20:54:00,34.0,32.0,29.47,West,268,6.9,8.3,35,0.00,,,-99.99,wx200d/1.3,2013-02-25 01:54:00,
2013-02-24 20:59:00,33.8,32.0,29.47,WNW,283,7.8,11.0,35,0.00,,,-99.99,wx200d/1.3,2013-02-25 01:59:00,
2013-02-24 21:04:00,33.8,32.0,29.47,WNW,286,11.2,13.0,35,0.00,,,-99.99,wx200d/1.3,2013-02-25 02:04:00,
2013-02-24 21:09:00,33.8,32.0,29.47,WNW,302,9.6,13.0,35,0.00,,,-99.99,wx200d/1.3,2013-02-25 02:09:00,
2013-02-24 21:14:00,33.8,32.0,29.47,WNW,297,6.9,11.6,35,0.00,,,-99.99,wx200d/1.3,2013-02-25 02:14:00,
2013-02-24 21:19:00,33.6,32.0,29.47,NW,310,6.7,9.2,36,0.00,,,-99.99,wx200d/1.3,2013-02-25 02:19:00,
2013-02-24 21:24:00,33.8,32.0,29.47,WNW,301,7.4,11.2,35,0.00,,,-99.99,wx200d/1.3,2013-02-25 02:24:00,
2013-02-24 21:29:00,34.0,32.0,29.47,WNW,282,8.3,11.0,34,0.00,,,-99.99,wx200d/1.3,2013-02-25 02:29:00,
2013-02-24 21:34:00,34.0,32.0,29.47,West,276,6.7,9.6,34,0.00,,,-99.99,wx200d/1.3,2013-02-25 02:34:00,
2013-02-24 21:39:00,33.8,32.0,29.47,West,265,6.7,10.5,35,0.00,,,-99.99,wx200d/1.3,2013-02-25 02:39:00,
2013-02-24 21:44:00,33.8,32.0,29.50,West,261,6.7,10.5,35,0.00,,,-99.99,wx200d/1.3,2013-02-25 02:44:00,
2013-02-24 21:49:00,33.6,32.0,29.50,West,272,7.8,9.6,36,0.00,,,-99.99,wx200d/1.3,2013-02-25 02:49:00,
2013-02-24 21:54:00,33.6,32.0,29.50,WSW,251,6.7,7.4,36,0.00,,,-99.99,wx200d/1.3,2013-02-25 02:54:00,
2013-02-24 21:59:00,33.4,32.0,29.50,West,262,5.8,8.7,36,0.00,,,-99.99,wx200d/1.3,2013-02-25 02:59:00,
2013-02-24 22:04:00,33.4,32.0,29.50,West,262,4.9,7.4,36,0.00,,,-99.99,wx200d/1.3,2013-02-25 03:04:00,
2013-02-24 22:09:00,33.4,32.0,29.50,West,262,6.9,7.8,36,0.00,,,-99.99,wx200d/1.3,2013-02-25 03:09:00,
2013-02-24 22:14:00,33.6,32.0,29.50,West,266,8.3,11.2,35,0.00,,,-99.99,wx200d/1.3,2013-02-25 03:14:00,
2013-02-24 22:20:00,33.6,32.0,29.50,West,267,8.7,11.0,35,0.00,,,-99.99,wx200d/1.3,2013-02-25 03:20:00,
2013-02-24 22:25:00,33.4,32.0,29.50,NW,305,7.8,11.2,36,0.00,,,-99.99,wx200d/1.3,2013-02-25 03:25:00,
2013-02-24 22:30:00,33.3,32.0,29.47,WNW,300,9.2,11.6,37,0.00,,,-99.99,wx200d/1.3,2013-02-25 03:30:00,
2013-02-24 22:35:00,33.4,32.0,29.47,NW,318,7.8,11.6,36,0.00,,,-99.99,wx200d/1.3,2013-02-25 03:35:00,
2013-02-24 22:40:00,33.6,32.0,29.47,WNW,293,8.7,12.5,36,0.00,,,-99.99,wx200d/1.3,2013-02-25 03:40:00,
2013-02-24 22:45:00,33.4,32.0,29.50,NW,310,8.3,9.6,36,0.00,,,-99.99,wx200d/1.3,2013-02-25 03:45:00,
2013-02-24 22:50:00,33.3,32.0,29.50,West,275,6.9,9.2,36,0.00,,,-99.99,wx200d/1.3,2013-02-25 03:50:00,
2013-02-24 22:55:00,33.3,32.0,29.50,WNW,301,6.9,9.6,36,0.00,,,-99.99,wx200d/1.3,2013-02-25 03:55:00,
2013-02-24 23:00:00,33.3,32.0,29.50,WNW,287,6.9,8.7,36,0.00,,,-99.99,wx200d/1.3,2013-02-25 04:00:00,
2013-02-24 23:05:00,33.3,32.0,29.50,West,276,6.3,9.6,36,0.00,,,-99.99,wx200d/1.3,2013-02-25 04:05:00,
2013-02-24 23:10:00,33.3,32.0,29.50,West,261,6.9,9.2,36,0.00,,,-99.99,wx200d/1.3,2013-02-25 04:10:00,
2013-02-24 23:15:00,33.3,32.0,29.50,West,262,4.0,7.4,37,0.00,,,-99.99,wx200d/1.3,2013-02-25 04:15:00,
2013-02-24 23:20:00,33.1,32.0,29.50,WSW,249,5.4,6.7,37,0.00,,,-99.99,wx200d/1.3,2013-02-25 04:20:00,
2013-02-24 23:25:00,33.1,32.0,29.50,West,260,0.0,5.8,37,0.00,,,-99.99,wx200d/1.3,2013-02-25 04:25:00,
2013-02-24 23:30:00,32.7,32.0,29.50,SW,236,0.0,0.0,38,0.00,,,-99.99,wx200d/1.3,2013-02-25 04:30:00,
2013-02-24 23:35:00,32.7,32.0,29.50,SW,236,0.0,0.0,39,0.00,,,-99.99,wx200d/1.3,2013-02-25 04:35:00,
2013-02-24 23:40:00,32.5,32.0,29.50,West,272,0.0,6.7,40,0.00,,,-99.99,wx200d/1.3,2013-02-25 04:40:00,
2013-02-24 23:45:00,32.7,32.0,29.50,WNW,286,6.9,8.7,40,0.00,,,-99.99,wx200d/1.3,2013-02-25 04:45:00,
2013-02-24 23:50:00,33.1,32.0,29.50,West,275,8.3,11.0,39,0.00,,,-99.99,wx200d/1.3,2013-02-25 04:50:00,
2013-02-24 23:55:00,33.4,32.0,29.50,West,278,10.1,12.1,37,0.00,,,-99.99,wx200d/1.3,2013-02-25 04:55:00,